Temperature
29 31 31 31 31 31 31 31 30 30 30 30 29 29 29 29 28 28 27 26 25 24 23 22 21 21 21 20 20 20 19 19 19 19 19 18 18 18 18 18 18 18 18 18
30 30 31 31 31 31 31 31 30 30 30 29 29 29 30 29 28 28 27 26 25 25 23 22 21 21 21 20 20 20 20 19 19 19 19 18 18 18 18 18 18 18 18 18
30 31 31 31 31 31 31 31 31 30 30 30 29 30 29 29 28 27 27 27 26 25 24 23 22 21 21 20 20 20 20 20 19 19 19 18 18 18 18 18 18 18 18 18
31 31 31 31 31 31 31 31 31 30 30 30 30 30 30 30 29 28 28 27 26 25 25 24 23 22 21 21 20 20 20 20 20 19 19 19 19 18 18 18 18 18 18 18
31 31 31 31 31 31 31 31 31 30 30 30 30 30 30 30 29 29 28 27 26 26 25 24 23 22 21 21 20 20 20 20 19 19 19 19 18 18 18 18 18 17 17 17
31 31 31 31 31 31 31 30 30 31 31 30 30 30 30 30 30 29 29 28 26 26 25 24 23 22 21 21 20 20 19 19 19 19 18 18 18 18 18 18 17 17 17 17
30 31 31 31 31 30 31 30 30 30 30 30 30 30 30 30 30 30 29 28 26 26 25 24 23 22 21 21 20 20 19 19 19 19 18 18 18 18 17 17 17 17 17 17
30 30 31 31 31 31 31 31 30 29 29 30 30 30 30 30 29 29 28 27 26 26 25 24 23 22 21 21 20 20 19 19 19 18 18 18 18 18 17 17 17 17 17 17
30 30 31 31 31 31 31 31 32 31 30 30 30 30 30 30 29 29 28 27 26 26 25 24 23 22 21 21 20 20 19 19 19 18 18 18 18 17 17 17 17 17 17 17
31 30 31 31 31 30 31 31 31 31 29 29 30 30 30 30 29 29 28 27 26 25 25 24 23 22 21 21 20 20 19 19 18 18 18 18 17 17 17 17 17 16 16 16
31 30 30 30 30 31 30 30 30 31 30 29 29 30 30 30 29 29 28 27 26 25 25 24 23 22 21 21 20 20 19 19 18 18 18 18 17 17 17 16 16 16 16 16
29 30 30 30 30 30 31 31 31 30 29 30 30 30 30 30 29 29 28 26 25 24 24 23 23 22 21 21 20 19 19 19 18 18 18 18 17 17 17 16 16 16 16 16
29 29 28 29 29 29 30 30 31 31 31 30 30 30 29 29 29 28 27 26 24 23 23 22 22 21 21 20 19 19 19 18 18 18 18 17 17 17 16 16 16 16 16 15
28 29 29 29 29 30 29 29 30 30 30 30 30 30 29 29 28 27 26 25 24 23 22 22 21 21 20 19 19 18 18 18 18 18 18 17 17 17 16 16 16 15 15 15
28 28 29 29 29 29 29 29 29 29 30 30 29 29 29 28 28 26 25 24 23 23 22 21 20 20 19 19 18 18 18 18 18 17 17 17 17 16 16 16 15 15 15 15
27 27 28 28 29 29 28 29 29 29 29 29 29 28 28 27 26 25 24 23 23 22 21 21 20 19 19 19 18 18 18 18 17 17 17 17 16 16 16 15 15 15 15 15
27 27 27 28 28 28 28 28 28 28 29 29 28 28 27 27 26 24 23 23 22 21 21 20 20 19 19 18 18 18 18 17 17 17 17 16 16 16 15 15 15 15 15 14
26 26 27 27 27 26 28 28 28 28 28 28 28 27 27 26 24 23 22 22 21 21 20 20 20 19 19 18 18 18 17 17 17 17 16 16 16 16 15 15 15 15 14 14
26 25 26 27 26 27 27 27 27 27 27 27 27 26 25 24 25 24 21 20 20 20 19 19 19 19 18 18 17 17 17 17 16 16 16 16 16 16 15 15 15 15 14 14
25 25 26 26 25 26 26 26 26 26 26 25 25 25 24 24 26 25 20 19 19 19 19 19 19 18 18 17 17 17 16 16 16 16 16 15 15 15 15 15 14 14 14 14
24 24 25 25 25 26 25 25 25 25 24 23 23 23 23 23 23 21 19 18 18 18 18 18 18 18 17 17 17 16 16 16 16 15 15 15 15 15 15 14 14 14 14 13
25 25 24 25 25 25 24 24 24 23 21 21 21 21 21 20 19 19 18 17 17 17 17 17 17 17 16 16 16 16 15 15 15 15 14 14 14 14 14 14 14 13 13 13
24 24 25 24 24 22 22 22 21 20 20 20 20 20 19 19 18 18 17 17 16 16 16 16 16 16 16 15 15 15 15 15 14 14 14 14 14 14 14 13 13 13 13 13
23 21 23 22 23 22 21 20 19 19 19 19 19 19 19 18 18 17 16 16 16 16 16 15 15 15 15 15 15 14 14 14 14 14 13 13 13 13 13 13 13 13 12 12
22 22 22 22 22 21 20 19 19 18 18 18 18 18 18 17 17 16 16 15 15 15 15 15 15 15 15 14 14 14 14 14 13 13 13 13 13 13 13 12 12 12 12 12
21 21 22 22 21 21 20 18 18 18 17 17 17 17 17 17 16 16 15 15 15 15 14 14 14 14 14 14 14 14 13 13 13 13 12 13 13 13 13 12 12 12 12 11
Wind_Speed
6 8 7 5 5 5 5 5 3 2 2 4 4 3 3 4 5 6 6 7 7 6 6 6 6 6 5 4 4 3 3 3 2 2 2 2 3 3 3 4 4 4 4 4
8 9 6 5 6 6 7 6 3 1 2 4 4 5 4 5 6 6 6 7 7 7 7 7 6 6 6 5 4 4 4 3 3 2 2 2 2 2 3 3 4 3 4 4
10 4 3 6 7 7 7 5 4 3 3 5 5 5 4 4 5 6 6 7 8 8 8 8 8 7 6 5 5 4 4 4 3 3 3 3 3 2 3 3 3 3 3 3
9 6 5 7 7 7 5 3 4 5 6 2 4 3 3 4 5 6 6 7 8 8 9 8 9 8 7 6 5 5 5 4 4 4 3 3 3 3 2 2 3 3 3 3
7 7 8 8 6 6 3 2 4 5 6 5 4 5 1 3 3 4 6 7 7 8 8 8 8 8 7 6 6 6 5 4 4 3 4 3 3 3 3 2 3 2 3 3
8 6 6 6 4 5 4 5 5 7 7 5 3 5 1 1 1 2 5 6 7 7 8 8 8 8 7 7 6 6 6 5 4 4 4 3 3 3 3 2 2 2 2 2
10 9 7 6 6 7 7 8 5 6 5 3 1 4 1 2 0 1 3 6 7 7 8 8 9 9 8 8 7 6 6 5 5 5 4 3 3 3 3 2 2 1 2 2
10 10 8 7 8 6 8 9 6 5 4 2 3 3 0 1 0 1 3 5 6 7 8 9 9 9 9 8 8 7 7 6 5 5 4 3 2 2 2 2 1 1 1 2
8 8 6 6 6 8 8 9 8 8 7 6 3 2 2 3 3 4 5 5 6 7 8 8 9 9 9 9 8 8 7 6 6 5 5 4 3 2 2 2 2 1 1 1
6 7 6 5 6 5 6 6 7 8 6 7 5 4 1 2 2 4 5 5 5 6 7 8 8 9 9 9 9 8 7 7 6 5 4 4 3 3 2 2 2 1 1 1
9 9 7 7 8 8 8 8 7 7 7 8 6 1 3 1 1 3 4 5 5 6 7 8 8 8 9 8 9 8 7 7 6 6 5 4 3 3 2 2 1 1 1 1
8 8 9 8 4 4 8 9 9 8 7 8 8 2 5 3 1 1 2 4 5 5 6 7 8 9 9 8 8 8 7 7 7 6 5 5 4 3 2 1 1 1 1 0
6 8 9 9 9 8 8 8 10 10 9 9 9 3 5 3 2 2 2 4 5 6 6 7 7 8 8 8 7 7 7 6 6 6 5 5 4 3 2 1 1 1 0 1
5 9 10 10 6 6 9 9 9 11 10 10 9 6 1 1 1 1 2 4 5 6 6 6 7 7 7 7 7 7 6 6 6 6 5 5 4 3 2 2 1 1 1 1
5 9 10 9 7 7 9 10 10 12 11 11 8 6 4 2 1 0 1 3 4 5 5 6 6 7 7 7 7 6 6 6 5 5 5 4 4 3 3 2 2 1 1 1
5 7 8 10 9 9 10 10 10 10 9 10 8 6 2 1 1 1 2 3 4 4 4 5 6 6 7 7 7 6 6 6 5 5 4 4 4 4 3 3 2 2 1 1
6 7 8 10 9 10 12 10 10 9 8 8 8 4 1 1 1 1 2 2 2 3 3 4 5 6 6 6 6 6 6 6 6 5 4 4 4 3 3 3 3 2 2 2
6 7 7 8 7 12 5 2 6 8 7 6 5 2 2 1 1 1 2 1 1 1 2 3 4 5 5 6 6 5 6 6 5 5 4 4 4 4 3 3 3 3 2 1
6 6 6 8 11 10 5 4 5 8 7 4 4 3 1 1 2 3 3 2 1 1 1 2 3 5 5 6 6 6 5 5 5 4 4 4 4 3 3 3 2 2 1 1
7 7 8 8 11 11 3 1 2 6 8 1 2 2 2 2 5 0 3 2 2 1 1 2 3 4 5 5 6 6 5 4 3 3 3 3 3 3 2 2 2 1 1 1
8 8 11 11 11 7 1 1 3 8 2 2 1 1 2 2 3 2 2 2 2 2 2 2 3 4 4 4 5 5 5 4 3 2 2 2 2 3 2 1 1 1 1 1
7 8 9 10 12 7 3 2 2 2 3 2 2 1 1 1 2 2 2 3 3 3 3 3 3 3 3 4 5 4 4 3 3 3 2 2 2 2 2 2 1 1 1 2
6 4 4 5 3 3 2 1 2 1 1 1 1 1 1 1 1 2 2 3 3 2 3 3 3 4 3 4 4 4 3 3 3 3 3 2 2 2 2 2 2 2 2 2
4 2 3 3 2 1 1 1 1 1 1 1 0 1 2 1 2 2 2 2 2 2 2 2 3 3 3 3 3 3 3 3 3 3 3 2 2 1 1 1 2 2 1 1
3 4 5 5 3 1 1 1 1 1 1 1 1 2 2 2 2 2 1 2 1 2 2 2 2 3 3 3 2 2 3 3 3 2 2 2 2 2 1 1 0 1 0 0
4 5 5 4 1 2 1 1 1 1 1 1 1 2 2 2 2 1 1 1 1 2 2 2 2 3 3 2 2 2 2 3 3 3 2 2 2 1 1 1 1 2 1 2
Wind_Direction
210 231 236 249 271 289 285 287 300 322 265 267 275 272 236 209 208 199 194 188 184 180 168 164 166 163 156 150 144 143 135 124 125 120 117 109 100 96 91 81 73 77 75 75
219 231 245 251 249 257 261 269 276 279 241 269 279 272 244 217 214 210 203 198 194 184 174 173 174 169 170 164 160 158 154 147 148 128 126 118 103 102 94 81 79 79 78 77
231 236 231 240 241 243 255 273 289 291 262 235 265 245 201 197 203 206 208 203 198 194 186 178 176 175 175 171 169 158 152 149 146 142 145 134 132 131 110 98 90 73 71 70
233 227 224 237 242 254 254 270 263 260 259 263 263 288 175 193 196 200 203 200 196 194 190 181 174 175 177 173 166 160 157 151 147 149 138 140 131 115 102 105 87 81 72 68
222 226 232 239 244 251 270 263 249 251 260 275 253 279 131 175 201 199 199 197 195 190 185 182 178 173 174 170 165 158 156 150 149 151 143 153 138 125 118 107 97 88 83 76
240 229 240 244 236 232 217 213 218 233 249 261 271 273 296 129 217 197 190 187 188 183 179 177 172 167 169 166 165 160 157 154 156 159 151 152 137 126 120 117 111 114 98 88
222 217 212 223 215 196 223 244 238 233 232 253 160 264 306 31 35 201 183 180 181 176 173 170 168 167 168 166 164 160 157 158 160 159 157 158 152 149 142 139 121 116 105 92
221 211 202 211 230 229 225 246 258 274 276 271 198 260 177 130 134 168 167 165 166 171 170 170 169 169 169 167 165 164 164 164 161 158 153 149 156 159 133 117 112 112 88 74
226 217 181 205 229 242 227 238 264 270 272 271 248 238 211 164 160 156 155 156 160 166 169 171 171 170 169 168 166 166 165 165 164 157 149 147 149 129 116 132 144 118 111 111
235 233 200 192 204 215 252 245 245 255 268 268 255 248 241 173 173 168 167 165 160 162 168 171 170 169 166 166 163 164 163 162 157 153 156 146 143 143 138 133 106 89 89 67
235 235 209 202 220 218 207 222 238 252 262 271 273 273 63 78 180 183 174 169 163 162 163 165 167 164 162 163 161 161 159 157 156 154 152 148 148 141 139 139 132 114 71 32
223 239 237 222 203 259 237 232 231 244 249 256 275 275 82 72 79 142 159 153 154 152 153 158 160 161 162 163 162 161 160 159 158 156 157 157 152 153 162 151 131 124 109 323
206 232 230 219 204 204 225 229 238 250 253 252 260 249 104 82 60 86 125 141 148 148 148 149 152 156 157 158 159 159 159 159 157 157 158 158 162 164 170 153 138 151 166 290
235 237 240 246 243 214 219 225 235 247 252 256 257 266 239 3 22 65 111 141 152 151 151 151 152 156 154 154 158 160 162 161 159 159 160 164 170 174 171 167 176 189 223 260
234 240 239 250 258 255 246 239 233 245 260 267 271 271 281 322 338 106 138 143 147 151 158 158 159 156 158 158 160 164 164 164 163 164 164 164 168 171 177 185 194 201 227 249
235 244 240 241 238 243 248 245 239 241 250 254 261 266 327 320 349 122 128 145 154 158 167 167 163 158 163 165 166 166 169 167 167 171 170 166 172 180 189 194 197 207 230 266
222 232 242 245 234 240 239 236 235 234 241 251 255 268 270 283 331 162 148 158 171 177 180 180 177 173 169 168 168 172 172 172 173 176 178 175 180 185 194 203 196 209 230 253
227 230 238 245 231 240 234 218 235 239 241 253 261 275 271 269 264 140 104 120 182 174 178 182 187 179 172 167 170 170 171 174 177 180 183 180 188 191 197 207 212 219 226 227
220 224 238 239 239 238 215 218 235 238 238 258 254 264 288 286 213 138 64 37 17 190 179 184 188 178 166 166 163 160 162 165 172 179 182 188 196 198 203 210 213 216 225 228
200 219 238 239 249 252 228 164 253 247 234 235 261 254 250 241 242 175 38 21 21 42 119 149 162 160 153 159 157 158 159 162 171 180 183 183 188 196 200 204 216 214 217 214
202 214 231 239 247 247 77 62 219 233 242 51 350 285 270 278 319 6 35 50 47 57 81 114 138 144 144 150 155 158 157 162 161 155 159 177 169 171 173 177 184 193 206 196
225 225 226 236 244 236 78 188 239 2 31 31 24 21 20 18 31 53 71 73 70 69 81 98 112 119 132 147 158 160 158 151 146 145 139 140 157 174 151 154 164 184 201 198
236 262 257 250 251 78 77 49 41 14 345 6 18 55 120 139 104 81 79 80 82 85 93 100 110 115 126 144 157 160 149 146 148 146 143 147 144 156 162 173 174 187 214 242
201 240 240 234 208 136 60 59 36 22 5 359 95 143 154 150 127 109 86 81 84 86 98 111 121 123 116 121 136 149 151 154 154 154 162 165 159 150 144 197 198 204 224 245
248 224 231 230 232 228 172 32 30 67 65 90 110 130 144 141 139 120 101 91 88 95 107 125 126 121 113 114 130 143 153 161 164 172 190 190 177 152 158 156 263 198 143 313
232 241 250 250 245 265 248 128 135 136 125 133 144 138 135 134 137 135 115 102 99 108 130 128 121 116 115 122 128 135 161 178 187 196 209 208 193 173 179 156 110 73 130 130
Height
1498 1495 1492 1490 1489 1490 1491 1493 1494 1492 1491 1493 1494 1494 1494 1497 1499 1500 1502 1505 1507 1509 1511 1513 1514 1515 1516 1516 1516 1517 1517 1517 1517 1517 1518 1518 1519 1519 1519 1519 1519 1519 1518 1518
1495 1492 1488 1488 1489 1490 1490 1492 1492 1491 1491 1493 1494 1493 1491 1493 1496 1498 1500 1503 1505 1507 1510 1512 1513 1514 1516 1516 1516 1517 1517 1517 1517 1517 1518 1519 1519 1520 1520 1520 1520 1520 1520 1519
1491 1487 1488 1489 1489 1490 1489 1490 1491 1491 1491 1489 1492 1491 1489 1490 1494 1496 1498 1500 1502 1505 1508 1510 1512 1513 1515 1516 1516 1517 1517 1517 1518 1518 1519 1519 1519 1520 1521 1521 1521 1521 1520 1520
1487 1485 1488 1488 1488 1487 1490 1485 1487 1490 1492 1491 1491 1497 1488 1486 1489 1492 1495 1497 1499 1502 1505 1508 1510 1512 1514 1515 1516 1516 1517 1517 1517 1518 1519 1519 1520 1521 1521 1521 1522 1521 1521 1521
1485 1484 1486 1488 1485 1485 1486 1485 1486 1487 1489 1490 1488 1493 1487 1483 1487 1488 1491 1494 1497 1500 1503 1506 1509 1511 1513 1514 1515 1516 1516 1517 1517 1518 1518 1519 1520 1521 1522 1522 1522 1522 1522 1521
1482 1482 1483 1483 1483 1484 1485 1486 1486 1485 1486 1499 1491 1495 1492 1481 1484 1484 1487 1492 1495 1498 1501 1504 1507 1509 1511 1513 1514 1515 1515 1516 1517 1518 1518 1519 1520 1520 1521 1522 1522 1522 1522 1522
1484 1481 1481 1483 1483 1484 1485 1488 1497 1500 1499 1497 1487 1492 1489 1479 1480 1483 1486 1490 1493 1497 1500 1503 1505 1508 1510 1512 1513 1514 1515 1515 1516 1517 1518 1519 1520 1520 1521 1522 1522 1522 1522 1522
1487 1486 1478 1479 1480 1481 1482 1483 1498 1507 1503 1493 1489 1491 1482 1479 1482 1484 1486 1489 1492 1495 1498 1501 1504 1506 1508 1510 1512 1513 1514 1515 1516 1517 1518 1519 1519 1521 1521 1521 1521 1522 1522 1521
1480 1482 1475 1477 1477 1477 1480 1480 1476 1484 1488 1494 1487 1484 1479 1478 1481 1483 1486 1488 1491 1494 1497 1500 1503 1505 1507 1509 1511 1512 1513 1515 1516 1517 1518 1518 1519 1520 1520 1520 1521 1521 1521 1521
1473 1482 1476 1476 1478 1479 1476 1475 1479 1485 1502 1504 1493 1486 1482 1479 1480 1482 1485 1488 1491 1493 1496 1499 1501 1503 1506 1508 1510 1512 1513 1514 1515 1516 1518 1519 1519 1519 1520 1520 1520 1520 1519 1519
1472 1480 1478 1476 1478 1476 1480 1480 1480 1480 1483 1497 1500 1489 1473 1477 1478 1480 1483 1487 1490 1492 1494 1497 1500 1502 1504 1507 1509 1511 1512 1513 1514 1515 1516 1517 1518 1519 1519 1520 1520 1519 1519 1518
1474 1475 1478 1475 1472 1473 1472 1473 1476 1487 1490 1486 1490 1487 1472 1476 1478 1480 1483 1487 1490 1492 1494 1496 1498 1501 1503 1506 1508 1509 1511 1512 1514 1515 1516 1516 1517 1518 1519 1519 1519 1518 1518 1518
1475 1476 1486 1484 1480 1477 1475 1473 1471 1471 1476 1482 1488 1485 1474 1476 1479 1481 1484 1487 1490 1492 1493 1495 1497 1499 1502 1504 1506 1508 1509 1511 1513 1514 1515 1515 1516 1517 1517 1517 1517 1517 1517 1516
1476 1473 1479 1483 1475 1471 1475 1475 1473 1473 1478 1479 1479 1477 1473 1476 1479 1482 1485 1487 1489 1492 1493 1495 1497 1498 1500 1502 1504 1506 1508 1510 1511 1512 1513 1514 1515 1515 1516 1516 1516 1516 1515 1515
1474 1474 1472 1470 1468 1469 1471 1472 1473 1474 1472 1475 1474 1474 1474 1477 1479 1483 1485 1487 1489 1491 1493 1494 1496 1497 1499 1501 1503 1505 1507 1508 1510 1511 1512 1512 1513 1514 1514 1514 1514 1514 1514 1514
1474 1474 1473 1474 1470 1471 1473 1471 1471 1472 1472 1472 1473 1475 1474 1478 1480 1483 1485 1486 1488 1490 1492 1493 1495 1496 1498 1499 1501 1503 1505 1507 1508 1509 1510 1511 1511 1512 1512 1512 1512 1512 1512 1511
1472 1474 1477 1475 1470 1473 1476 1471 1471 1472 1469 1470 1474 1474 1475 1478 1481 1483 1485 1486 1487 1489 1491 1492 1493 1495 1496 1498 1499 1501 1503 1505 1506 1507 1508 1509 1509 1510 1510 1511 1510 1510 1510 1509
1474 1475 1473 1473 1478 1489 1472 1466 1467 1470 1470 1470 1472 1474 1476 1479 1482 1483 1485 1486 1487 1488 1489 1491 1492 1493 1495 1496 1498 1499 1501 1503 1504 1505 1506 1506 1507 1508 1508 1508 1508 1507 1507 1507
1472 1474 1473 1474 1477 1474 1470 1468 1469 1471 1472 1473 1473 1475 1478 1480 1480 1482 1485 1486 1487 1488 1488 1489 1491 1492 1493 1494 1496 1497 1499 1500 1502 1502 1503 1504 1504 1505 1505 1505 1505 1505 1504 1504
1472 1473 1473 1475 1480 1480 1470 1468 1470 1472 1475 1475 1475 1477 1479 1479 1476 1479 1484 1485 1486 1487 1487 1488 1489 1491 1492 1493 1494 1495 1497 1498 1499 1500 1500 1501 1501 1502 1502 1503 1502 1502 1502 1501
1472 1473 1473 1474 1476 1469 1469 1470 1472 1479 1477 1477 1478 1479 1480 1481 1481 1484 1484 1485 1486 1486 1486 1487 1488 1489 1490 1491 1492 1493 1495 1495 1496 1497 1497 1498 1498 1499 1500 1500 1500 1500 1500 1499
1468 1469 1472 1472 1475 1473 1471 1471 1474 1477 1479 1479 1479 1480 1481 1482 1483 1484 1484 1485 1485 1485 1485 1486 1486 1487 1489 1490 1491 1492 1493 1493 1494 1495 1495 1496 1496 1497 1498 1497 1498 1498 1497 1497
1466 1467 1464 1467 1471 1473 1474 1475 1478 1479 1480 1480 1480 1480 1481 1482 1483 1484 1484 1484 1484 1485 1485 1486 1486 1487 1487 1488 1489 1490 1491 1492 1492 1493 1493 1494 1494 1494 1495 1495 1495 1495 1495 1495
1468 1472 1469 1470 1470 1473 1476 1477 1478 1479 1480 1480 1481 1481 1481 1482 1483 1484 1484 1484 1484 1484 1484 1485 1485 1486 1486 1487 1488 1489 1489 1490 1491 1492 1492 1492 1492 1493 1493 1493 1493 1493 1493 1493
1469 1470 1469 1471 1472 1474 1476 1477 1478 1479 1479 1480 1481 1481 1481 1482 1483 1483 1483 1483 1483 1483 1484 1484 1484 1484 1485 1486 1487 1488 1488 1489 1489 1490 1490 1491 1491 1491 1491 1491 1491 1491 1490 1490
1470 1471 1470 1469 1472 1474 1476 1477 1478 1479 1479 1480 1480 1481 1481 1482 1482 1482 1483 1483 1483 1483 1483 1484 1484 1484 1484 1485 1486 1486 1487 1487 1488 1488 1489 1489 1489 1489 1489 1489 1489 1488 1488 1488